Theta_e
303 304 305 305 305 304 302 305 306 306 308 309 307 307 306 307 307 307 306 308 307 308 308 307 306 306 305 305 305 304 302 300 296 299 302 305 303 302 305 305 309 307 308
303 302 305 306 304 306 304 305 307 305 305 307 306 306 306 306 306 306 309 309 308 308 307 307 310 310 305 305 304 303 302 301 299 298 302 303 305 306 306 304 307 311 309
304 303 303 303 302 302 304 305 304 304 304 304 305 305 304 304 304 305 306 307 306 309 309 306 305 304 302 303 303 303 303 304 304 300 300 303 304 305 303 304 306 308 310
307 306 304 302 303 302 303 305 307 306 305 305 305 305 304 302 303 304 307 305 306 310 308 306 305 303 301 302 305 304 304 302 301 301 301 302 303 304 302 301 302 304 305
306 306 304 305 304 305 307 305 304 303 304 307 306 305 302 302 303 302 303 305 304 305 307 307 306 308 310 308 303 301 301 301 300 300 299 299 299 299 299 301 301 302 302
304 307 307 305 305 305 307 308 307 306 306 304 303 304 301 303 303 305 306 302 305 305 305 305 306 309 308 310 309 309 304 298 297 300 300 298 299 300 302 302 306 302 298
305 308 308 308 305 305 306 306 304 304 305 305 306 306 304 303 302 303 306 305 303 307 307 307 305 308 305 303 305 309 309 309 307 300 299 300 300 302 300 299 299 299 301
305 306 307 306 305 306 306 306 304 303 303 306 304 303 302 301 302 301 304 305 304 303 304 304 303 302 300 300 304 305 306 307 308 308 304 304 302 300 301 302 302 302 307
305 305 307 307 306 305 304 305 306 304 304 304 305 303 301 299 301 300 300 304 305 304 304 301 303 302 301 300 303 306 308 306 310 308 306 304 303 302 302 299 299 301 299
305 309 310 307 306 306 309 309 310 309 308 307 306 304 305 301 299 299 300 302 304 305 302 300 303 300 300 299 297 299 306 307 304 305 308 307 307 308 305 302 301 300 301
308 310 310 309 306 308 310 309 310 307 308 306 309 305 304 302 301 299 300 304 304 304 305 303 303 301 299 298 298 297 300 303 302 303 306 309 309 306 310 305 303 304 303
310 311 309 311 310 310 304 305 307 307 305 308 306 306 303 300 300 300 298 299 302 304 305 306 305 303 299 298 298 299 298 298 302 304 307 305 304 305 309 312 308 307 310
310 308 308 309 309 308 299 297 298 299 300 301 299 300 297 299 296 299 297 297 300 303 305 302 299 298 300 302 302 300 300 302 300 299 301 300 302 304 302 304 305 303 301
307 307 307 307 306 303 303 297 294 293 294 294 297 292 293 293 293 292 293 294 298 300 301 298 303 302 300 301 303 303 300 300 299 299 300 300 301 301 299 301 299 298 296
308 307 307 305 305 301 296 296 294 289 289 289 288 291 289 288 290 291 291 292 292 294 294 302 301 301 300 301 300 301 299 300 300 300 299 299 299 299 299 299 297 294 293
307 306 305 307 308 307 298 294 293 293 294 293 292 289 292 292 293 293 293 294 293 293 300 299 299 299 299 299 299 298 299 299 299 300 299 298 297 297 297 297 296 293 292
307 307 307 306 307 307 302 298 294 294 295 294 293 292 291 292 293 293 294 293 296 296 297 297 297 298 299 299 299 297 298 297 298 299 298 297 296 297 297 295 295 294 293
307 305 306 306 305 307 306 305 301 296 292 294 295 292 294 293 292 293 293 297 297 296 295 294 295 297 298 297 297 298 299 297 297 297 298 298 295 296 295 294 293 292 291
309 307 306 306 306 306 305 301 301 300 299 297 294 294 297 293 293 293 293 295 293 293 294 294 295 296 295 296 297 297 295 294 295 295 296 297 295 294 294 293 293 291 290
309 305 302 305 307 304 301 301 300 300 297 294 294 294 297 296 295 294 295 294 293 293 294 294 295 294 294 295 294 293 292 292 292 293 295 296 296 293 293 292 292 291 291
308 309 304 308 305 300 299 301 300 299 298 296 295 295 288 294 295 294 293 293 293 293 294 294 293 293 293 293 292 291 290 289 290 292 293 294 295 292 293 292 292 292 291
309 307 308 306 302 301 300 300 297 297 297 298 296 295 288 294 296 294 294 294 293 294 294 294 293 292 292 291 290 289 288 287 288 290 291 292 294 292 293 292 292 291 291
305 305 307 306 301 299 300 301 298 296 296 296 296 297 297 299 297 295 295 294 294 294 294 294 293 291 291 291 290 288 286 285 286 289 289 290 292 292 291 291 291 291 290
308 306 308 309 305 303 299 299 299 295 296 296 296 297 297 299 299 296 295 294 294 294 294 294 293 291 290 289 289 287 286 284 285 288 288 290 291 291 291 291 291 292 290
307 305 306 306 308 309 306 300 300 299 298 296 296 296 296 298 299 297 295 294 294 294 294 294 292 292 290 289 287 287 284 284 285 284 287 290 292 292 291 290 291 291 291
306 308 309 309 306 307 309 308 304 300 298 298 297 295 295 296 299 297 294 294 293 293 294 293 291 291 290 288 287 285 284 284 285 284 286 291 291 290 290 290 292 291 290
Wind_Speed
6 5 7 6 6 5 5 5 5 5 5 5 6 5 5 6 6 6 5 5 6 5 5 6 5 5 4 4 3 2 3 2 2 3 2 2 2 2 4 4 5 5 5
4 6 5 6 7 7 6 6 6 6 6 6 5 6 5 6 7 7 6 5 5 6 6 7 5 4 5 5 3 3 3 3 2 2 2 2 3 2 3 5 4 5 5
6 6 7 6 6 6 6 6 6 7 7 7 6 6 6 6 7 7 6 6 5 5 6 7 6 6 4 2 3 4 3 2 1 0 3 2 3 2 2 4 5 5 5
5 6 6 6 6 5 6 6 6 6 6 6 6 6 6 6 6 6 6 6 7 6 6 6 5 5 5 5 3 3 2 2 2 2 3 3 2 3 1 3 4 2 4
4 5 7 6 6 5 4 5 6 6 6 6 7 6 6 6 5 6 6 6 6 6 6 4 4 5 6 5 2 3 3 2 2 2 2 1 2 1 2 2 3 3 4
6 5 5 6 5 6 5 5 5 4 5 5 6 6 6 5 9 10 7 6 7 6 5 5 2 5 2 4 5 5 4 2 1 1 2 2 3 2 2 2 2 3 4
6 5 6 5 4 5 5 6 5 5 4 5 4 4 5 4 8 9 10 4 3 4 4 5 4 2 5 5 6 6 9 10 9 3 3 3 3 3 1 3 2 2 4
6 6 6 5 6 6 6 5 3 1 2 4 5 4 5 3 6 6 5 1 2 2 3 3 1 2 3 5 5 4 2 5 7 5 6 6 6 6 4 3 3 5 5
6 6 6 6 6 5 5 6 4 3 3 3 3 4 4 2 5 8 7 4 4 4 3 1 1 2 4 7 6 6 6 4 5 9 7 12 11 11 7 1 3 1 3
5 6 5 5 6 6 6 6 4 3 3 4 3 3 4 2 3 4 4 3 4 3 4 5 6 4 5 4 3 4 6 5 6 7 7 7 8 9 6 7 4 4 3
4 5 6 5 4 5 5 3 4 6 5 4 4 4 6 5 4 7 5 3 2 3 2 4 4 7 8 8 3 4 6 5 7 6 6 6 6 5 5 5 6 5 4
4 4 4 5 4 4 5 4 5 5 5 4 4 3 3 4 7 10 15 9 5 3 3 4 5 8 9 10 5 7 8 7 4 5 4 4 4 4 5 4 3 6 7
6 6 5 6 5 3 5 6 4 6 5 5 4 2 3 4 5 10 11 13 11 5 4 8 13 11 9 7 8 8 7 5 5 5 4 4 4 4 6 6 6 6 5
6 7 6 5 4 5 4 4 4 4 4 4 4 4 4 4 5 5 5 6 8 7 8 7 8 5 5 3 5 6 4 4 3 2 3 4 5 5 5 3 3 5 4
4 6 6 4 3 2 2 1 2 1 0 1 1 0 2 4 4 5 5 5 5 6 7 3 5 5 5 5 5 5 5 6 6 5 4 5 5 5 5 3 3 4 4
4 5 5 5 4 5 4 2 1 3 5 5 6 3 3 6 8 9 9 11 9 8 4 4 4 4 4 4 4 5 4 5 5 5 5 4 4 4 5 4 3 4 4
5 6 5 6 7 1 5 5 4 4 7 9 9 9 7 9 10 10 11 11 11 8 3 4 3 4 3 4 4 4 3 4 5 5 4 4 5 5 4 4 3 4 4
5 10 5 5 5 6 1 5 5 5 4 3 7 8 6 10 10 11 12 8 6 7 4 3 3 3 3 3 5 4 4 5 5 6 7 5 5 4 3 4 4 3 4
6 5 5 5 5 6 5 0 4 5 5 4 2 2 6 10 9 10 10 4 3 3 4 5 3 4 4 5 5 5 5 5 5 6 7 7 5 4 4 4 5 5 5
6 10 8 5 5 4 2 3 2 2 5 4 1 1 2 5 3 2 3 3 3 3 4 5 4 5 5 5 5 5 5 6 6 6 7 7 6 4 5 5 4 3 4
5 6 10 7 3 1 1 3 3 2 4 4 4 3 3 3 1 3 2 2 2 2 3 4 4 5 5 5 5 5 5 5 5 6 6 6 7 5 5 4 4 4 4
5 6 8 7 4 3 1 0 1 3 2 5 3 2 2 1 4 3 3 2 2 2 2 4 4 4 4 5 4 5 5 5 5 6 7 6 6 5 6 4 4 4 4
5 6 7 5 2 3 2 2 3 2 2 2 3 3 3 3 4 4 3 2 2 3 3 4 5 5 5 5 5 4 4 4 5 5 6 6 6 5 5 4 3 4 4
6 6 6 7 3 0 3 2 2 3 3 4 2 1 2 3 4 4 3 2 3 2 3 5 5 6 5 5 4 4 4 4 4 4 6 5 5 5 5 4 4 4 4
5 5 5 5 4 4 2 4 4 4 5 4 3 2 1 1 4 4 3 3 1 3 4 5 5 7 7 7 6 7 6 5 5 6 5 5 5 6 5 3 4 3 5
5 5 1 6 5 4 3 4 4 4 5 4 4 3 2 2 3 4 4 3 2 1 4 5 6 9 7 5 6 6 7 8 8 8 5 4 2 4 4 4 6 3 4
Wind_Direction
11 358 9 355 356 0 349 345 341 337 346 357 360 351 22 23 12 17 3 16 42 26 38 51 56 67 63 58 52 59 64 92 111 303 241 269 311 257 273 282 260 268 273
18 27 2 4 360 356 355 345 347 355 355 356 358 25 47 42 31 15 16 20 37 48 53 60 56 67 59 59 65 69 76 47 70 323 305 308 255 262 287 295 277 265 256
10 23 8 5 355 354 348 346 4 358 357 345 358 40 49 37 31 19 15 11 39 53 75 69 53 50 46 44 64 52 44 42 45 210 286 251 264 226 302 267 260 259 264
14 15 10 351 354 2 5 11 16 12 16 15 18 40 57 42 29 4 10 22 40 37 75 67 55 48 41 28 52 59 53 6 288 266 264 265 247 269 227 259 303 285 276
22 5 350 337 345 360 19 26 26 24 12 14 19 38 51 41 19 4 357 36 42 38 46 64 58 44 35 26 39 356 348 317 298 321 321 315 277 309 248 256 254 280 287
359 347 328 334 348 342 1 27 42 26 14 21 26 35 44 37 8 8 14 32 31 43 25 21 80 48 321 303 286 270 228 218 302 325 313 321 302 290 306 298 296 346 330
350 341 356 360 357 344 348 19 39 31 14 354 27 49 55 42 21 11 17 45 45 39 8 360 5 24 10 338 323 300 251 252 228 202 253 255 267 231 275 307 288 244 242
348 4 349 4 17 21 24 21 27 12 326 332 351 48 61 30 22 10 3 16 296 269 248 302 119 222 309 330 338 360 326 239 240 219 211 249 244 245 209 204 267 294 290
349 355 356 357 9 14 5 345 340 8 4 19 60 86 95 24 344 345 356 325 288 284 237 225 196 241 303 353 13 358 340 316 302 296 244 257 278 254 220 280 294 345 291
343 325 346 343 1 357 335 343 319 345 347 19 59 111 134 95 339 334 352 341 336 297 243 270 265 258 291 329 21 341 314 310 328 314 309 306 281 286 216 194 206 248 250
346 351 357 342 316 318 320 313 349 7 25 32 60 64 71 47 14 7 331 316 339 332 261 289 282 272 288 292 235 247 241 303 304 293 297 297 302 290 267 216 205 199 236
0 8 327 317 321 340 10 4 15 22 42 31 67 47 15 18 18 5 7 24 17 40 354 314 305 304 298 296 299 273 280 285 295 331 329 325 324 342 329 285 259 228 230
338 339 331 319 336 330 52 24 14 18 34 23 53 43 345 353 1 1 3 357 0 4 307 302 299 304 320 328 349 340 357 9 5 17 345 326 294 296 332 15 8 4 346
356 323 303 320 348 21 34 52 36 21 32 35 40 26 353 354 350 346 347 342 338 340 336 327 325 340 6 307 27 20 24 9 10 0 335 314 334 356 4 1 21 352 14
328 320 300 295 293 136 76 69 89 93 104 18 340 215 31 337 295 294 286 321 320 299 317 2 22 21 24 20 10 14 5 13 13 346 8 359 348 357 342 348 20 9 33
333 310 302 306 284 192 175 175 340 165 298 294 293 292 291 252 302 310 318 317 319 333 44 31 11 24 33 26 18 1 4 3 356 0 356 0 353 352 340 350 17 36 24
318 319 312 302 302 171 188 177 188 287 272 284 286 295 295 268 309 324 337 346 8 44 46 22 16 21 21 26 13 5 2 347 357 4 1 345 352 351 355 2 2 35 359
287 281 270 280 287 306 112 201 177 185 203 263 274 239 278 300 310 330 354 22 16 15 17 356 8 20 27 22 6 13 14 2 10 360 359 344 358 2 350 356 16 47 9
307 299 296 296 301 295 309 7 169 175 189 212 273 339 277 254 274 313 338 71 51 15 353 355 356 35 19 23 24 29 29 12 10 3 359 350 342 16 343 1 10 47 38
303 281 279 290 303 305 24 37 2 98 150 158 135 267 333 38 41 53 44 58 53 20 4 4 3 38 34 32 38 29 17 13 7 359 352 352 338 354 1 354 22 44 16
296 305 298 304 246 241 360 2 315 26 144 169 199 229 152 105 184 114 87 59 64 39 23 31 35 41 35 26 39 33 24 4 359 349 350 338 338 331 356 348 22 40 31
299 284 296 289 200 165 246 40 319 66 77 179 210 245 198 116 136 120 106 96 82 78 72 74 70 60 50 41 42 41 23 360 347 340 346 332 332 331 1 348 17 20 29
290 292 301 313 194 189 204 274 201 144 43 146 136 184 185 139 133 137 140 125 134 90 74 78 91 61 45 42 42 57 32 348 320 312 326 321 326 328 360 347 0 24 22
289 288 317 340 284 334 207 233 186 194 131 147 112 103 161 154 154 140 143 140 116 114 114 97 105 104 74 48 31 22 16 333 305 310 310 310 321 333 9 353 358 25 31
287 290 300 330 300 290 269 261 186 178 154 154 145 128 124 106 151 148 130 96 134 119 145 118 114 108 89 66 30 10 344 321 312 308 318 325 332 10 360 2 2 5 35
283 291 327 294 286 316 327 352 274 174 164 160 144 143 148 56 132 134 129 96 50 178 118 111 99 94 81 54 26 359 346 338 335 328 310 317 345 27 355 356 17 9 41